FW8448 Weather Reports


Display with metric or nautical units.
time (UTC)temp
F
wind
direction
speed
MPH
gust
MPH
rain 1hr
in
rain 24hr
in
rain mn
in
humidity
%
barometer
mb
20260504203058 66 198 5.0 22.0 0.00 0.00 0.00 70 1004.8
20260504201557 67 219 4.0 11.0 0.00 0.00 0.00 66 1005.6
20260504200054 67 201 5.0 17.0 0.00 0.00 0.00 66 1005.4
20260504194556 68 216 5.0 12.0 0.00 0.00 0.00 61 1005.9
20260504193103 68 253 4.0 12.0 0.00 0.00 0.00 67 1006.0
20260504191548 68 240 6.0 24.0 0.00 0.00 0.00 66 1006.9
20260504190059 68 220 5.0 17.0 0.00 0.00 0.00 68 1007.0
20260504184547 68 247 7.0 19.0 0.00 0.00 0.00 67 1007.2
20260504183058 69 209 4.0 11.0 0.00 0.00 0.00 67 1006.8
20260504181552 71 221 3.0 15.0 0.00 0.00 0.00 67 1006.4
20260504180130 70 239 3.0 10.0 0.00 0.00 0.00 68 1006.4
20260504174556 69 149 4.0 12.0 0.00 0.00 0.00 71 1006.5
20260504173058 69 227 6.0 19.0 0.00 0.00 0.00 69 1006.8
20260504171554 70 213 5.0 15.0 0.00 0.00 0.00 67 1006.7
20260504120104 53 200 1.0 6.0 0.00 0.00 0.00 81 1008.0
20260504081552 49 0 0.0 3.0 0.00 0.00 0.00 79 1009.0
20260504080111 50 216 1.0 4.0 0.00 0.00 0.00 78 1009.1
20260504060103 52 217 1.0 8.0 0.00 0.00 0.00 74 1010.0
20260504050113 52 214 1.0 9.0 0.00 0.00 0.00 74 1010.6
20260504044550 52 212 1.0 5.0 0.00 0.00 0.00 74 1010.8
20260504043059 52 181 1.0 6.0 0.00 0.00 0.00 74 1010.7
20260504041556 52 182 1.0 7.0 0.00 0.00 0.00 75 1010.8
20260504034555 52 216 1.0 6.0 0.00 0.00 0.00 74 1011.2
20260504033058 52 173 2.0 7.0 0.00 0.00 0.00 73 1011.2
20260504031548 52 194 1.0 4.0 0.00 0.00 0.00 73 1011.4
20260504030054 53 0 1.0 3.0 0.00 0.00 0.00 72 1011.4
20260504024554 54 191 1.0 5.0 0.00 0.00 0.00 70 1011.4
20260504023052 54 0 1.0 7.0 0.00 0.00 0.00 70 1011.5
20260504021552 54 200 1.0 7.0 0.00 0.00 0.00 70 1011.6
20260504014557 55 165 0.0 4.0 0.00 0.00 0.00 68 1011.6
20260504013051 55 165 1.0 7.0 0.00 0.00 0.00 66 1011.6
20260504011550 56 205 2.0 5.0 0.00 0.00 0.00 65 1011.5
20260504010050 56 207 2.0 7.0 0.00 0.00 0.00 64 1011.5
20260504004553 56 198 1.0 5.0 0.00 0.00 0.00 62 1011.5
20260504003057 57 244 3.0 8.0 0.00 0.00 0.00 60 1011.5
20260504001556 57 214 2.0 8.0 0.00 0.00 0.00 60 1011.5
20260504000058 57 229 4.0 11.0 0.00 0.00 0.00 59 1011.6
20260503234551 58 217 3.0 10.0 0.00 0.00 0.00 58 1011.5
20260503233051 58 207 3.0 8.0 0.00 0.00 0.00 59 1011.6
20260503231550 58 207 2.0 9.0 0.00 0.00 0.00 59 1011.5
20260503230105 58 224 2.0 8.0 0.00 0.00 0.00 59 1011.5
20260503224559 58 170 2.0 9.0 0.00 0.00 0.00 56 1011.7
20260503223053 59 203 4.0 9.0 0.00 0.00 0.00 56 1011.9
20260503221546 59 190 4.0 11.0 0.00 0.00 0.00 54 1011.8
20260503220056 58 205 3.0 9.0 0.00 0.00 0.00 55 1012.0
20260503214547 59 214 3.0 11.0 0.00 0.00 0.00 53 1012.6
20260503213056 60 226 4.0 16.0 0.00 0.00 0.00 52 1012.7
20260503211606 59 192 2.0 8.0 0.00 0.00 0.00 58 1012.9
20260503210054 59 215 3.0 13.0 0.00 0.00 0.00 55 1013.1
20260503204551 56 101 1.0 6.0 0.00 0.00 0.00 62 1013.3